| time (UTC) | temp F | wind direction | speed MPH | gust MPH | rain 1hr in | rain 24hr in | rain mn in | humidity % | barometer mb |
| 20260508130550 | 73 | 360 | 5.0 | 0.0 | 0.00 | 0.00 | 0.00 | 17 | 1003.5 |
| 20260508130027 | 73 | 360 | 4.0 | 0.0 | 0.00 | 0.00 | 0.00 | 17 | 1003.5 |
| 20260508125505 | 73 | 360 | 4.0 | 0.0 | 0.00 | 0.00 | 0.00 | 17 | 1003.3 |
| 20260508125046 | 73 | 360 | 4.0 | 0.0 | 0.00 | 0.00 | 0.00 | 17 | 1003.3 |
| 20260508124525 | 73 | 360 | 3.0 | 0.0 | 0.00 | 0.00 | 0.00 | 17 | 1003.2 |
| 20260508124004 | 73 | 360 | 3.0 | 0.0 | 0.00 | 0.00 | 0.00 | 17 | 1003.1 |
| 20260508123551 | 73 | 360 | 4.0 | 0.0 | 0.00 | 0.00 | 0.00 | 17 | 1003.1 |
| 20260508123033 | 73 | 360 | 4.0 | 0.0 | 0.00 | 0.00 | 0.00 | 17 | 1003.3 |
| 20260508122514 | 72 | 360 | 4.0 | 0.0 | 0.00 | 0.00 | 0.00 | 17 | 1003.2 |
| 20260508122055 | 72 | 360 | 3.0 | 0.0 | 0.00 | 0.00 | 0.00 | 17 | 1003.1 |
| 20260508121556 | 72 | 360 | 3.0 | 0.0 | 0.00 | 0.00 | 0.00 | 17 | 1003.2 |
| 20260508121020 | 71 | 360 | 3.0 | 0.0 | 0.00 | 0.00 | 0.00 | 17 | 1003.2 |
| 20260508120604 | 71 | 360 | 2.0 | 0.0 | 0.00 | 0.00 | 0.00 | 17 | 1003.2 |
| 20260508120043 | 71 | 360 | 2.0 | 0.0 | 0.00 | 0.00 | 0.00 | 17 | 1003.4 |
| 20260508115526 | 70 | 360 | 1.0 | 0.0 | 0.00 | 0.00 | 0.00 | 17 | 1003.4 |
| 20260508115007 | 70 | 360 | 1.0 | 0.0 | 0.00 | 0.00 | 0.00 | 16 | 1003.4 |
| 20260508114557 | 71 | 360 | 1.0 | 0.0 | 0.00 | 0.00 | 0.00 | 16 | 1003.3 |
| 20260508114042 | 71 | 360 | 1.0 | 0.0 | 0.00 | 0.00 | 0.00 | 16 | 1003.1 |
| 20260508113529 | 71 | 360 | 2.0 | 0.0 | 0.00 | 0.00 | 0.00 | 16 | 1003.1 |
| 20260508113009 | 71 | 360 | 2.0 | 0.0 | 0.00 | 0.00 | 0.00 | 16 | 1003.1 |
| 20260508112554 | 71 | 360 | 1.0 | 0.0 | 0.00 | 0.00 | 0.00 | 16 | 1003.3 |
| 20260508112043 | 70 | 360 | 2.0 | 0.0 | 0.00 | 0.00 | 0.00 | 16 | 1003.3 |
| 20260508111522 | 70 | 360 | 3.0 | 0.0 | 0.00 | 0.00 | 0.00 | 16 | 1003.4 |
| 20260508111004 | 71 | 360 | 3.0 | 0.0 | 0.00 | 0.00 | 0.00 | 16 | 1003.2 |
| 20260508110554 | 71 | 360 | 2.0 | 0.0 | 0.00 | 0.00 | 0.00 | 16 | 1003.1 |
| 20260508110048 | 71 | 360 | 2.0 | 0.0 | 0.00 | 0.00 | 0.00 | 16 | 1003.2 |
| 20260508105520 | 72 | 360 | 2.0 | 0.0 | 0.00 | 0.00 | 0.00 | 15 | 1003.3 |
| 20260508105006 | 70 | 360 | 1.0 | 0.0 | 0.00 | 0.00 | 0.00 | 16 | 1003.3 |
| 20260508104552 | 69 | 360 | 1.0 | 0.0 | 0.00 | 0.00 | 0.00 | 16 | 1003.4 |
| 20260508104033 | 69 | 360 | 1.0 | 0.0 | 0.00 | 0.00 | 0.00 | 16 | 1003.4 |
| 20260508103516 | 68 | 360 | 1.0 | 0.0 | 0.00 | 0.00 | 0.00 | 17 | 1003.6 |
| 20260508103114 | 68 | 360 | 1.0 | 0.0 | 0.00 | 0.00 | 0.00 | 17 | 1003.5 |
| 20260508102544 | 68 | 360 | 2.0 | 0.0 | 0.00 | 0.00 | 0.00 | 17 | 1003.4 |
| 20260508102029 | 68 | 360 | 2.0 | 0.0 | 0.00 | 0.00 | 0.00 | 16 | 1003.3 |
| 20260508101514 | 71 | 360 | 3.0 | 0.0 | 0.00 | 0.00 | 0.00 | 15 | 1003.1 |
| 20260508101056 | 72 | 360 | 3.0 | 0.0 | 0.00 | 0.00 | 0.00 | 15 | 1002.9 |
| 20260508100537 | 72 | 360 | 3.0 | 0.0 | 0.00 | 0.00 | 0.00 | 14 | 1002.7 |
| 20260508100019 | 72 | 360 | 3.0 | 0.0 | 0.00 | 0.00 | 0.00 | 14 | 1002.7 |
| 20260508095601 | 72 | 360 | 3.0 | 0.0 | 0.00 | 0.00 | 0.00 | 14 | 1003.0 |
| 20260508095038 | 72 | 360 | 2.0 | 0.0 | 0.00 | 0.00 | 0.00 | 14 | 1003.2 |
| 20260508094527 | 70 | 360 | 1.0 | 0.0 | 0.00 | 0.00 | 0.00 | 16 | 1003.2 |
| 20260508094006 | 68 | 360 | 1.0 | 0.0 | 0.00 | 0.00 | 0.00 | 17 | 1003.5 |
| 20260508093551 | 67 | 360 | 1.0 | 0.0 | 0.00 | 0.00 | 0.00 | 16 | 1003.4 |
| 20260508093031 | 67 | 360 | 1.0 | 0.0 | 0.00 | 0.00 | 0.00 | 16 | 1003.4 |
| 20260508092509 | 67 | 360 | 1.0 | 0.0 | 0.00 | 0.00 | 0.00 | 17 | 1003.4 |
| 20260508092052 | 67 | 360 | 1.0 | 0.0 | 0.00 | 0.00 | 0.00 | 17 | 1003.4 |
| 20260508091528 | 67 | 360 | 1.0 | 0.0 | 0.00 | 0.00 | 0.00 | 17 | 1003.3 |
| 20260508091008 | 68 | 360 | 1.0 | 0.0 | 0.00 | 0.00 | 0.00 | 16 | 1003.4 |
| 20260508090554 | 68 | 360 | 2.0 | 0.0 | 0.00 | 0.00 | 0.00 | 16 | 1003.4 |
| 20260508090033 | 69 | 360 | 2.0 | 0.0 | 0.00 | 0.00 | 0.00 | 16 | 1003.1 |
| 20260508085521 | 70 | 360 | 3.0 | 0.0 | 0.00 | 0.00 | 0.00 | 15 | 1003.4 |
| 20260508085100 | 70 | 360 | 3.0 | 0.0 | 0.00 | 0.00 | 0.00 | 15 | 1003.5 |
| 20260508084546 | 69 | 360 | 3.0 | 0.0 | 0.00 | 0.00 | 0.00 | 15 | 1003.5 |
| 20260508084033 | 69 | 360 | 2.0 | 0.0 | 0.00 | 0.00 | 0.00 | 16 | 1003.4 |
| 20260508083509 | 69 | 360 | 2.0 | 0.0 | 0.00 | 0.00 | 0.00 | 16 | 1003.5 |
| 20260508083144 | 69 | 360 | 2.0 | 0.0 | 0.00 | 0.00 | 0.00 | 16 | 1003.6 |
| 20260508082539 | 69 | 360 | 2.0 | 0.0 | 0.00 | 0.00 | 0.00 | 15 | 1003.6 |
| 20260508082021 | 70 | 360 | 2.0 | 0.0 | 0.00 | 0.00 | 0.00 | 16 | 1003.6 |
| 20260508081609 | 70 | 360 | 2.0 | 0.0 | 0.00 | 0.00 | 0.00 | 16 | 1003.6 |
| 20260508081041 | 69 | 360 | 2.0 | 0.0 | 0.00 | 0.00 | 0.00 | 16 | 1003.6 |
| 20260508080520 | 70 | 360 | 1.0 | 0.0 | 0.00 | 0.00 | 0.00 | 16 | 1003.7 |
| 20260508080002 | 70 | 360 | 1.0 | 0.0 | 0.00 | 0.00 | 0.00 | 16 | 1003.7 |
| 20260508075553 | 70 | 360 | 0.0 | 0.0 | 0.00 | 0.00 | 0.00 | 16 | 1003.8 |
| 20260508075035 | 69 | 360 | 0.0 | 0.0 | 0.00 | 0.00 | 0.00 | 16 | 1003.7 |
| 20260508074518 | 69 | 360 | 1.0 | 0.0 | 0.00 | 0.00 | 0.00 | 16 | 1003.9 |
| 20260508074059 | 69 | 360 | 1.0 | 0.0 | 0.00 | 0.00 | 0.00 | 17 | 1003.9 |
| 20260508073538 | 69 | 360 | 1.0 | 0.0 | 0.00 | 0.00 | 0.00 | 17 | 1003.7 |
| 20260508073020 | 69 | 360 | 1.0 | 0.0 | 0.00 | 0.00 | 0.00 | 17 | 1003.8 |
| 20260508072601 | 69 | 360 | 1.0 | 0.0 | 0.00 | 0.00 | 0.00 | 17 | 1003.7 |
| 20260508072037 | 69 | 360 | 1.0 | 0.0 | 0.00 | 0.00 | 0.00 | 17 | 1003.7 |
| 20260508071515 | 69 | 360 | 1.0 | 0.0 | 0.00 | 0.00 | 0.00 | 18 | 1003.8 |
| 20260508071100 | 69 | 360 | 1.0 | 0.0 | 0.00 | 0.00 | 0.00 | 18 | 1003.7 |
| 20260508070543 | 71 | 360 | 1.0 | 0.0 | 0.00 | 0.00 | 0.00 | 17 | 1003.5 |
| 20260508070018 | 73 | 360 | 2.0 | 0.0 | 0.00 | 0.00 | 0.00 | 16 | 1003.4 |
| 20260508065606 | 73 | 360 | 2.0 | 0.0 | 0.00 | 0.00 | 0.00 | 17 | 1003.4 |
| 20260508065047 | 73 | 360 | 1.0 | 0.0 | 0.00 | 0.00 | 0.00 | 17 | 1003.4 |
| 20260508064544 | 73 | 360 | 1.0 | 0.0 | 0.00 | 0.00 | 0.00 | 17 | 1003.4 |
| 20260508064012 | 72 | 360 | 2.0 | 0.0 | 0.00 | 0.00 | 0.00 | 17 | 1003.5 |
| 20260508063557 | 72 | 360 | 2.0 | 0.0 | 0.00 | 0.00 | 0.00 | 16 | 1003.5 |
| 20260508063040 | 72 | 360 | 2.0 | 0.0 | 0.00 | 0.00 | 0.00 | 17 | 1003.5 |
| 20260508062522 | 72 | 360 | 2.0 | 0.0 | 0.00 | 0.00 | 0.00 | 17 | 1003.4 |
| 20260508062008 | 72 | 360 | 2.0 | 0.0 | 0.00 | 0.00 | 0.00 | 16 | 1003.4 |
| 20260508061554 | 73 | 360 | 3.0 | 0.0 | 0.00 | 0.00 | 0.00 | 16 | 1003.3 |
| 20260508061036 | 73 | 360 | 3.0 | 0.0 | 0.00 | 0.00 | 0.00 | 16 | 1003.2 |
| 20260508060515 | 74 | 360 | 3.0 | 0.0 | 0.00 | 0.00 | 0.00 | 16 | 1003.2 |
| 20260508060115 | 75 | 360 | 2.0 | 0.0 | 0.00 | 0.00 | 0.00 | 16 | 1003.1 |
| 20260508055542 | 76 | 360 | 2.0 | 0.0 | 0.00 | 0.00 | 0.00 | 15 | 1003.0 |
| 20260508055024 | 77 | 360 | 3.0 | 0.0 | 0.00 | 0.00 | 0.00 | 15 | 1003.0 |
| 20260508054504 | 77 | 360 | 3.0 | 0.0 | 0.00 | 0.00 | 0.00 | 15 | 1003.0 |
| 20260508054055 | 77 | 360 | 3.0 | 0.0 | 0.00 | 0.00 | 0.00 | 15 | 1003.0 |
| 20260508053538 | 76 | 360 | 2.0 | 0.0 | 0.00 | 0.00 | 0.00 | 15 | 1003.0 |
| 20260508053025 | 76 | 360 | 1.0 | 0.0 | 0.00 | 0.00 | 0.00 | 14 | 1003.0 |
| 20260508052508 | 78 | 360 | 1.0 | 0.0 | 0.00 | 0.00 | 0.00 | 13 | 1002.8 |
| 20260508052054 | 78 | 360 | 0.0 | 0.0 | 0.00 | 0.00 | 0.00 | 14 | 1002.9 |
| 20260508051538 | 79 | 360 | 0.0 | 0.0 | 0.00 | 0.00 | 0.00 | 13 | 1002.9 |
| 20260508051023 | 79 | 360 | 1.0 | 0.0 | 0.00 | 0.00 | 0.00 | 13 | 1002.9 |
| 20260508050506 | 79 | 360 | 0.0 | 0.0 | 0.00 | 0.00 | 0.00 | 13 | 1003.0 |
| 20260508050059 | 79 | 360 | 1.0 | 0.0 | 0.00 | 0.00 | 0.00 | 13 | 1002.9 |
| 20260508045535 | 79 | 360 | 1.0 | 0.0 | 0.00 | 0.00 | 0.00 | 13 | 1003.0 |
| 20260508045015 | 80 | 360 | 2.0 | 0.0 | 0.00 | 0.00 | 0.00 | 13 | 1003.1 |
| 20260508044558 | 79 | 360 | 1.0 | 0.0 | 0.00 | 0.00 | 0.00 | 13 | 1003.1 |
| 20260508044039 | 80 | 360 | 1.0 | 0.0 | 0.00 | 0.00 | 0.00 | 13 | 1003.0 |
| 20260508043526 | 80 | 360 | 2.0 | 0.0 | 0.00 | 0.00 | 0.00 | 12 | 1003.0 |
| 20260508043005 | 81 | 360 | 3.0 | 0.0 | 0.00 | 0.00 | 0.00 | 12 | 1003.0 |
| 20260508042551 | 81 | 360 | 2.0 | 0.0 | 0.00 | 0.00 | 0.00 | 12 | 1002.8 |
| 20260508042032 | 81 | 360 | 2.0 | 0.0 | 0.00 | 0.00 | 0.00 | 12 | 1003.0 |
| 20260508041515 | 81 | 360 | 2.0 | 0.0 | 0.00 | 0.00 | 0.00 | 12 | 1002.8 |
| 20260508041105 | 81 | 360 | 3.0 | 0.0 | 0.00 | 0.00 | 0.00 | 12 | 1002.7 |
| 20260508040547 | 82 | 360 | 3.0 | 0.0 | 0.00 | 0.00 | 0.00 | 12 | 1002.6 |
| 20260508040026 | 82 | 360 | 4.0 | 0.0 | 0.00 | 0.00 | 0.00 | 11 | 1002.7 |
| 20260508035507 | 82 | 360 | 3.0 | 0.0 | 0.00 | 0.00 | 0.00 | 11 | 1002.9 |
| 20260508035046 | 82 | 360 | 3.0 | 0.0 | 0.00 | 0.00 | 0.00 | 11 | 1002.9 |
| 20260508034532 | 83 | 360 | 3.0 | 0.0 | 0.00 | 0.00 | 0.00 | 11 | 1002.8 |
| 20260508034014 | 83 | 360 | 3.0 | 0.0 | 0.00 | 0.00 | 0.00 | 11 | 1002.7 |
| 20260508033602 | 83 | 360 | 3.0 | 0.0 | 0.00 | 0.00 | 0.00 | 11 | 1002.6 |
| 20260508033045 | 84 | 360 | 4.0 | 0.0 | 0.00 | 0.00 | 0.00 | 11 | 1002.6 |
| 20260508032527 | 84 | 360 | 4.0 | 0.0 | 0.00 | 0.00 | 0.00 | 11 | 1002.4 |
| 20260508032006 | 84 | 360 | 3.0 | 0.0 | 0.00 | 0.00 | 0.00 | 11 | 1002.3 |
| 20260508031552 | 85 | 360 | 3.0 | 0.0 | 0.00 | 0.00 | 0.00 | 11 | 1002.3 |
| 20260508031032 | 85 | 360 | 3.0 | 0.0 | 0.00 | 0.00 | 0.00 | 11 | 1002.2 |
| 20260508030511 | 85 | 360 | 1.0 | 0.0 | 0.00 | 0.00 | 0.00 | 11 | 1002.2 |
| 20260508030112 | 87 | 360 | 0.0 | 0.0 | 0.00 | 0.00 | 0.00 | 12 | 1002.0 |
| 20260508025536 | 87 | 360 | 0.0 | 0.0 | 0.00 | 0.00 | 0.00 | 12 | 1002.3 |
| 20260508025020 | 88 | 360 | 0.0 | 0.0 | 0.00 | 0.00 | 0.00 | 12 | 1002.3 |
| 20260508024606 | 88 | 360 | 0.0 | 0.0 | 0.00 | 0.00 | 0.00 | 12 | 1002.2 |
| 20260508024050 | 89 | 360 | 0.0 | 0.0 | 0.00 | 0.00 | 0.00 | 12 | 1002.1 |
| 20260508023532 | 89 | 360 | 0.0 | 0.0 | 0.00 | 0.00 | 0.00 | 12 | 1002.0 |
| 20260508023018 | 89 | 360 | 0.0 | 0.0 | 0.00 | 0.00 | 0.00 | 11 | 1001.8 |
| 20260508022600 | 90 | 360 | 0.0 | 0.0 | 0.00 | 0.00 | 0.00 | 11 | 1001.8 |
| 20260508022042 | 90 | 360 | 0.0 | 0.0 | 0.00 | 0.00 | 0.00 | 11 | 1001.8 |
| 20260508021524 | 91 | 198 | 0.0 | 0.0 | 0.00 | 0.00 | 0.00 | 11 | 1001.8 |
| 20260508021006 | 91 | 170 | 0.0 | 0.0 | 0.00 | 0.00 | 0.00 | 10 | 1001.7 |
| 20260508020550 | 91 | 230 | 0.0 | 0.0 | 0.00 | 0.00 | 0.00 | 10 | 1001.7 |
| 20260508020028 | 91 | 233 | 1.0 | 0.0 | 0.00 | 0.00 | 0.00 | 10 | 1001.6 |
| 20260508015510 | 92 | 270 | 1.0 | 0.0 | 0.00 | 0.00 | 0.00 | 10 | 1002.2 |
| 20260508015056 | 92 | 326 | 1.0 | 0.0 | 0.00 | 0.00 | 0.00 | 10 | 1002.1 |
| 20260508014541 | 92 | 176 | 1.0 | 0.0 | 0.00 | 0.00 | 0.00 | 10 | 1002.1 |
| 20260508014023 | 92 | 281 | 1.0 | 0.0 | 0.00 | 0.00 | 0.00 | 9 | 1002.1 |
| 20260508013505 | 93 | 213 | 0.0 | 0.0 | 0.00 | 0.00 | 0.00 | 9 | 1002.1 |
| 20260508013052 | 93 | 203 | 0.0 | 0.0 | 0.00 | 0.00 | 0.00 | 9 | 1002.1 |
| 20260508012535 | 93 | 171 | 0.0 | 0.0 | 0.00 | 0.00 | 0.00 | 9 | 1002.1 |
| 20260508012019 | 92 | 194 | 1.0 | 0.0 | 0.00 | 0.00 | 0.00 | 9 | 1002.1 |
| 20260508011611 | 92 | 188 | 1.0 | 0.0 | 0.00 | 0.00 | 0.00 | 9 | 1002.1 |
| 20260508011045 | 93 | 186 | 1.0 | 0.0 | 0.00 | 0.00 | 0.00 | 9 | 1002.0 |
| 20260508010526 | 93 | 186 | 1.0 | 0.0 | 0.00 | 0.00 | 0.00 | 9 | 1002.2 |
| 20260508010005 | 93 | 306 | 1.0 | 0.0 | 0.00 | 0.00 | 0.00 | 8 | 1002.4 |
| 20260508005553 | 93 | 286 | 2.0 | 0.0 | 0.00 | 0.00 | 0.00 | 9 | 1002.3 |
| 20260508005036 | 93 | 279 | 2.0 | 0.0 | 0.00 | 0.00 | 0.00 | 8 | 1002.4 |
| 20260508004520 | 94 | 192 | 1.0 | 0.0 | 0.00 | 0.00 | 0.00 | 9 | 1002.4 |
| 20260508004104 | 94 | 208 | 1.0 | 0.0 | 0.00 | 0.00 | 0.00 | 9 | 1002.4 |
| 20260508003541 | 94 | 202 | 2.0 | 0.0 | 0.00 | 0.00 | 0.00 | 9 | 1002.4 |
| 20260508003021 | 93 | 244 | 2.0 | 0.0 | 0.00 | 0.00 | 0.00 | 8 | 1002.5 |
| 20260508002603 | 94 | 252 | 1.0 | 0.0 | 0.00 | 0.00 | 0.00 | 8 | 1002.4 |
| 20260508002042 | 94 | 186 | 1.0 | 0.0 | 0.00 | 0.00 | 0.00 | 8 | 1002.5 |
| 20260508001521 | 94 | 282 | 2.0 | 0.0 | 0.00 | 0.00 | 0.00 | 9 | 1002.5 |
| 20260508001007 | 94 | 275 | 2.0 | 0.0 | 0.00 | 0.00 | 0.00 | 8 | 1002.6 |
| 20260508000550 | 94 | 203 | 1.0 | 0.0 | 0.00 | 0.00 | 0.00 | 8 | 1002.6 |
| 20260508000028 | 94 | 152 | 1.0 | 0.0 | 0.00 | 0.00 | 0.00 | 9 | 1002.7 |
| 20260507235508 | 94 | 325 | 2.0 | 0.0 | 0.00 | 0.00 | 0.00 | 9 | 1002.6 |
| 20260507235056 | 94 | 240 | 1.0 | 0.0 | 0.00 | 0.00 | 0.00 | 8 | 1002.8 |
| 20260507234534 | 94 | 26 | 1.0 | 0.0 | 0.00 | 0.00 | 0.00 | 9 | 1002.7 |
| 20260507234015 | 93 | 188 | 1.0 | 0.0 | 0.00 | 0.00 | 0.00 | 8 | 1002.9 |
| 20260507233603 | 93 | 74 | 2.0 | 0.0 | 0.00 | 0.00 | 0.00 | 8 | 1003.0 |
| 20260507233047 | 93 | 73 | 1.0 | 0.0 | 0.00 | 0.00 | 0.00 | 8 | 1003.1 |
| 20260507232528 | 93 | 191 | 1.0 | 0.0 | 0.00 | 0.00 | 0.00 | 9 | 1003.1 |
| 20260507232007 | 91 | 94 | 1.0 | 0.0 | 0.00 | 0.00 | 0.00 | 9 | 1003.4 |
| 20260507231605 | 92 | 76 | 1.0 | 0.0 | 0.00 | 0.00 | 0.00 | 8 | 1003.3 |
| 20260507231028 | 92 | 218 | 1.0 | 0.0 | 0.00 | 0.00 | 0.00 | 8 | 1003.3 |
| 20260507230506 | 93 | 294 | 1.0 | 0.0 | 0.00 | 0.00 | 0.00 | 8 | 1003.3 |
| 20260507230051 | 92 | 360 | 1.0 | 0.0 | 0.00 | 0.00 | 0.00 | 8 | 1003.5 |
| 20260507225527 | 91 | 98 | 2.0 | 0.0 | 0.00 | 0.00 | 0.00 | 10 | 1003.7 |
| 20260507225013 | 89 | 64 | 2.0 | 0.0 | 0.00 | 0.00 | 0.00 | 9 | 1003.8 |
| 20260507224604 | 91 | 15 | 2.0 | 0.0 | 0.00 | 0.00 | 0.00 | 8 | 1003.7 |
| 20260507224030 | 93 | 360 | 1.0 | 0.0 | 0.00 | 0.00 | 0.00 | 8 | 1003.9 |
| 20260507223508 | 93 | 202 | 1.0 | 0.0 | 0.00 | 0.00 | 0.00 | 9 | 1003.9 |
| 20260507223050 | 92 | 228 | 1.0 | 0.0 | 0.00 | 0.00 | 0.00 | 9 | 1004.0 |
| 20260507222526 | 89 | 194 | 2.0 | 0.0 | 0.00 | 0.00 | 0.00 | 9 | 1004.3 |
| 20260507222008 | 90 | 49 | 2.0 | 0.0 | 0.00 | 0.00 | 0.00 | 9 | 1004.4 |
| 20260507221553 | 90 | 285 | 1.0 | 0.0 | 0.00 | 0.00 | 0.00 | 9 | 1004.5 |
| 20260507221033 | 91 | 349 | 1.0 | 0.0 | 0.00 | 0.00 | 0.00 | 9 | 1004.6 |
| 20260507220510 | 91 | 339 | 1.0 | 0.0 | 0.00 | 0.00 | 0.00 | 9 | 1004.7 |
| 20260507220054 | 90 | 360 | 1.0 | 0.0 | 0.00 | 0.00 | 0.00 | 9 | 1004.8 |
| 20260507215530 | 93 | 360 | 1.0 | 0.0 | 0.00 | 0.00 | 0.00 | 9 | 1004.4 |
| 20260507215006 | 91 | 217 | 1.0 | 0.0 | 0.00 | 0.00 | 0.00 | 9 | 1004.6 |
| 20260507214607 | 90 | 117 | 1.0 | 0.0 | 0.00 | 0.00 | 0.00 | 11 | 1004.8 |
| 20260507214034 | 89 | 84 | 1.0 | 0.0 | 0.00 | 0.00 | 0.00 | 9 | 1005.1 |
| 20260507213515 | 90 | 331 | 1.0 | 0.0 | 0.00 | 0.00 | 0.00 | 9 | 1005.0 |
| 20260507213108 | 92 | 85 | 1.0 | 0.0 | 0.00 | 0.00 | 0.00 | 9 | 1005.2 |
| 20260507212541 | 91 | 229 | 1.0 | 0.0 | 0.00 | 0.00 | 0.00 | 9 | 1005.2 |
| 20260507212017 | 90 | 192 | 1.0 | 0.0 | 0.00 | 0.00 | 0.00 | 10 | 1005.4 |
| 20260507211601 | 89 | 14 | 2.0 | 0.0 | 0.00 | 0.00 | 0.00 | 10 | 1005.6 |
| 20260507211042 | 91 | 69 | 1.0 | 0.0 | 0.00 | 0.00 | 0.00 | 10 | 1005.6 |
| 20260507210521 | 89 | 152 | 1.0 | 0.0 | 0.00 | 0.00 | 0.00 | 10 | 1005.7 |
| 20260507205542 | 89 | 278 | 2.0 | 0.0 | 0.00 | 0.00 | 0.00 | 10 | 1005.9 |
| 20260507205018 | 87 | 59 | 2.0 | 0.0 | 0.00 | 0.00 | 0.00 | 10 | 1006.1 |
| 20260507204613 | 87 | 309 | 2.0 | 0.0 | 0.00 | 0.00 | 0.00 | 10 | 1006.1 |
| 20260507204045 | 87 | 328 | 2.0 | 0.0 | 0.00 | 0.00 | 0.00 | 11 | 1006.3 |
| 20260507203524 | 88 | 286 | 2.0 | 0.0 | 0.00 | 0.00 | 0.00 | 9 | 1006.4 |
| 20260507203002 | 89 | 118 | 1.0 | 0.0 | 0.00 | 0.00 | 0.00 | 10 | 1006.4 |
| 20260507202544 | 90 | 96 | 1.0 | 0.0 | 0.00 | 0.00 | 0.00 | 9 | 1006.4 |
| 20260507202024 | 90 | 253 | 1.0 | 0.0 | 0.00 | 0.00 | 0.00 | 10 | 1006.5 |
| 20260507201503 | 89 | 360 | 1.0 | 0.0 | 0.00 | 0.00 | 0.00 | 10 | 1006.6 |
| 20260507201047 | 90 | 360 | 1.0 | 0.0 | 0.00 | 0.00 | 0.00 | 10 | 1006.6 |
| 20260507200523 | 89 | 265 | 2.0 | 0.0 | 0.00 | 0.00 | 0.00 | 10 | 1006.8 |
| 20260507200000 | 87 | 360 | 1.0 | 0.0 | 0.00 | 0.00 | 0.00 | 10 | 1006.6 |
| 20260507195546 | 87 | 11 | 1.0 | 0.0 | 0.00 | 0.00 | 0.00 | 11 | 1006.7 |
| 20260507195024 | 86 | 50 | 2.0 | 0.0 | 0.00 | 0.00 | 0.00 | 10 | 1006.8 |
| 20260507194502 | 86 | 360 | 1.0 | 0.0 | 0.00 | 0.00 | 0.00 | 10 | 1006.8 |
| 20260507194044 | 87 | 297 | 0.0 | 0.0 | 0.00 | 0.00 | 0.00 | 9 | 1007.0 |
| 20260507193527 | 89 | 197 | 1.0 | 0.0 | 0.00 | 0.00 | 0.00 | 8 | 1006.9 |
| 20260507193006 | 89 | 360 | 1.0 | 0.0 | 0.00 | 0.00 | 0.00 | 9 | 1007.0 |
| 20260507192548 | 87 | 184 | 2.0 | 0.0 | 0.00 | 0.00 | 0.00 | 10 | 1007.2 |
| 20260507192029 | 85 | 117 | 2.0 | 0.0 | 0.00 | 0.00 | 0.00 | 9 | 1007.3 |
| 20260507191507 | 88 | 360 | 1.0 | 0.0 | 0.00 | 0.00 | 0.00 | 9 | 1007.3 |
| 20260507191049 | 88 | 119 | 1.0 | 0.0 | 0.00 | 0.00 | 0.00 | 9 | 1007.4 |
| 20260507190526 | 85 | 196 | 1.0 | 0.0 | 0.00 | 0.00 | 0.00 | 10 | 1007.9 |
| 20260507190017 | 86 | 105 | 1.0 | 0.0 | 0.00 | 0.00 | 0.00 | 9 | 1008.1 |
| 20260507185550 | 88 | 360 | 1.0 | 0.0 | 0.00 | 0.00 | 0.00 | 9 | 1008.0 |
| 20260507185029 | 87 | 221 | 1.0 | 0.0 | 0.00 | 0.00 | 0.00 | 9 | 1008.1 |
| 20260507184504 | 87 | 360 | 0.0 | 0.0 | 0.00 | 0.00 | 0.00 | 9 | 1008.3 |
| 20260507184051 | 86 | 217 | 0.0 | 0.0 | 0.00 | 0.00 | 0.00 | 9 | 1008.2 |
| 20260507183534 | 88 | 204 | 0.0 | 0.0 | 0.00 | 0.00 | 0.00 | 9 | 1008.2 |
| 20260507183017 | 86 | 360 | 1.0 | 0.0 | 0.00 | 0.00 | 0.00 | 9 | 1008.5 |
| 20260507182558 | 85 | 81 | 2.0 | 0.0 | 0.00 | 0.00 | 0.00 | 12 | 1008.7 |
| 20260507182038 | 84 | 360 | 1.0 | 0.0 | 0.00 | 0.00 | 0.00 | 11 | 1008.7 |
| 20260507181516 | 87 | 360 | 0.0 | 0.0 | 0.00 | 0.00 | 0.00 | 10 | 1008.6 |
| 20260507181057 | 86 | 360 | 0.0 | 0.0 | 0.00 | 0.00 | 0.00 | 10 | 1008.7 |
| 20260507180537 | 85 | 360 | 1.0 | 0.0 | 0.00 | 0.00 | 0.00 | 10 | 1008.8 |
| 20260507180014 | 84 | 360 | 2.0 | 0.0 | 0.00 | 0.00 | 0.00 | 12 | 1009.0 |
| 20260507175554 | 83 | 360 | 3.0 | 0.0 | 0.00 | 0.00 | 0.00 | 13 | 1009.2 |
| 20260507175032 | 82 | 360 | 2.0 | 0.0 | 0.00 | 0.00 | 0.00 | 12 | 1009.2 |
| 20260507174511 | 83 | 360 | 1.0 | 0.0 | 0.00 | 0.00 | 0.00 | 13 | 1009.2 |
| 20260507174056 | 84 | 360 | 1.0 | 0.0 | 0.00 | 0.00 | 0.00 | 13 | 1009.3 |
| 20260507173535 | 83 | 360 | 1.0 | 0.0 | 0.00 | 0.00 | 0.00 | 13 | 1009.3 |
| 20260507173015 | 82 | 360 | 1.0 | 0.0 | 0.00 | 0.00 | 0.00 | 14 | 1009.3 |
| 20260507172553 | 81 | 360 | 2.0 | 0.0 | 0.00 | 0.00 | 0.00 | 14 | 1009.6 |
| 20260507172029 | 81 | 360 | 2.0 | 0.0 | 0.00 | 0.00 | 0.00 | 15 | 1009.6 |
| 20260507171507 | 82 | 360 | 1.0 | 0.0 | 0.00 | 0.00 | 0.00 | 14 | 1009.6 |
| 20260507171056 | 81 | 360 | 1.0 | 0.0 | 0.00 | 0.00 | 0.00 | 15 | 1009.7 |
| 20260507170532 | 81 | 360 | 1.0 | 0.0 | 0.00 | 0.00 | 0.00 | 15 | 1009.7 |
| 20260507170012 | 81 | 360 | 1.0 | 0.0 | 0.00 | 0.00 | 0.00 | 15 | 1009.7 |
| 20260507165552 | 80 | 360 | 1.0 | 0.0 | 0.00 | 0.00 | 0.00 | 15 | 1009.4 |
| 20260507165037 | 81 | 102 | 1.0 | 0.0 | 0.00 | 0.00 | 0.00 | 14 | 1009.3 |
| 20260507164517 | 81 | 104 | 1.0 | 0.0 | 0.00 | 0.00 | 0.00 | 15 | 1009.3 |
| 20260507164052 | 82 | 137 | 0.0 | 0.0 | 0.00 | 0.00 | 0.00 | 15 | 1009.3 |
| 20260507163528 | 82 | 228 | 0.0 | 0.0 | 0.00 | 0.00 | 0.00 | 15 | 1009.3 |
| 20260507163007 | 81 | 238 | 1.0 | 0.0 | 0.00 | 0.00 | 0.00 | 15 | 1009.4 |
| 20260507162551 | 80 | 114 | 1.0 | 0.0 | 0.00 | 0.00 | 0.00 | 16 | 1009.6 |
| 20260507162031 | 81 | 360 | 0.0 | 0.0 | 0.00 | 0.00 | 0.00 | 15 | 1009.6 |
| 20260507161509 | 80 | 360 | 0.0 | 0.0 | 0.00 | 0.00 | 0.00 | 15 | 1009.6 |
| 20260507161047 | 79 | 360 | 0.0 | 0.0 | 0.00 | 0.00 | 0.00 | 16 | 1009.7 |
| 20260507160528 | 80 | 360 | 0.0 | 0.0 | 0.00 | 0.00 | 0.00 | 17 | 1009.7 |
| 20260507160002 | 79 | 360 | 1.0 | 0.0 | 0.00 | 0.00 | 0.00 | 16 | 1009.7 |
| 20260507155546 | 79 | 360 | 1.0 | 0.0 | 0.00 | 0.00 | 0.00 | 16 | 1009.7 |
| 20260507155024 | 78 | 360 | 1.0 | 0.0 | 0.00 | 0.00 | 0.00 | 15 | 1009.7 |
| 20260507154501 | 78 | 360 | 1.0 | 0.0 | 0.00 | 0.00 | 0.00 | 16 | 1009.7 |
| 20260507154041 | 78 | 360 | 1.0 | 0.0 | 0.00 | 0.00 | 0.00 | 15 | 1009.7 |
| 20260507153519 | 77 | 360 | 2.0 | 0.0 | 0.00 | 0.00 | 0.00 | 18 | 1009.9 |
| 20260507153100 | 76 | 360 | 2.0 | 0.0 | 0.00 | 0.00 | 0.00 | 19 | 1010.0 |
| 20260507152538 | 75 | 360 | 3.0 | 0.0 | 0.00 | 0.00 | 0.00 | 19 | 1010.0 |
| 20260507152015 | 75 | 360 | 2.0 | 0.0 | 0.00 | 0.00 | 0.00 | 21 | 1010.2 |
| 20260507151555 | 74 | 360 | 3.0 | 0.0 | 0.00 | 0.00 | 0.00 | 21 | 1010.2 |
| 20260507151033 | 73 | 360 | 3.0 | 0.0 | 0.00 | 0.00 | 0.00 | 21 | 1010.2 |
| 20260507150511 | 72 | 360 | 3.0 | 0.0 | 0.00 | 0.00 | 0.00 | 22 | 1010.3 |
| 20260507150052 | 72 | 360 | 3.0 | 0.0 | 0.00 | 0.00 | 0.00 | 23 | 1010.4 |
| 20260507145532 | 71 | 360 | 3.0 | 0.0 | 0.00 | 0.00 | 0.00 | 23 | 1010.1 |
| 20260507145004 | 71 | 296 | 3.0 | 0.0 | 0.00 | 0.00 | 0.00 | 23 | 1010.3 |
| 20260507144551 | 70 | 315 | 4.0 | 0.0 | 0.00 | 0.00 | 0.00 | 23 | 1010.3 |
| 20260507144025 | 69 | 329 | 4.0 | 0.0 | 0.00 | 0.00 | 0.00 | 23 | 1010.3 |
| 20260507143503 | 68 | 304 | 4.0 | 0.0 | 0.00 | 0.00 | 0.00 | 24 | 1010.5 |
| 20260507143044 | 68 | 275 | 4.0 | 0.0 | 0.00 | 0.00 | 0.00 | 24 | 1010.4 |
| 20260507142520 | 67 | 331 | 4.0 | 0.0 | 0.00 | 0.00 | 0.00 | 24 | 1010.4 |
| 20260507142106 | 67 | 309 | 4.0 | 0.0 | 0.00 | 0.00 | 0.00 | 25 | 1010.6 |
| 20260507141540 | 66 | 339 | 3.0 | 0.0 | 0.00 | 0.00 | 0.00 | 25 | 1010.6 |
| 20260507141016 | 65 | 360 | 2.0 | 0.0 | 0.00 | 0.00 | 0.00 | 26 | 1010.6 |
| 20260507140600 | 65 | 360 | 2.0 | 0.0 | 0.00 | 0.00 | 0.00 | 26 | 1010.8 |
| 20260507140050 | 64 | 360 | 2.0 | 0.0 | 0.00 | 0.00 | 0.00 | 26 | 1010.7 |
| 20260507135512 | 63 | 360 | 2.0 | 0.0 | 0.00 | 0.00 | 0.00 | 27 | 1010.3 |
| 20260507135059 | 63 | 360 | 1.0 | 0.0 | 0.00 | 0.00 | 0.00 | 27 | 1010.5 |
| 20260507134535 | 62 | 360 | 1.0 | 0.0 | 0.00 | 0.00 | 0.00 | 28 | 1010.5 |
| 20260507134014 | 61 | 360 | 1.0 | 0.0 | 0.00 | 0.00 | 0.00 | 28 | 1010.4 |
| 20260507133600 | 61 | 360 | 1.0 | 0.0 | 0.00 | 0.00 | 0.00 | 28 | 1010.6 |
| 20260507133041 | 61 | 360 | 1.0 | 0.0 | 0.00 | 0.00 | 0.00 | 28 | 1010.5 |
| 20260507132516 | 60 | 360 | 1.0 | 0.0 | 0.00 | 0.00 | 0.00 | 28 | 1010.4 |
| 20260507132102 | 60 | 360 | 1.0 | 0.0 | 0.00 | 0.00 | 0.00 | 28 | 1010.3 |
| 20260507131543 | 59 | 360 | 1.0 | 0.0 | 0.00 | 0.00 | 0.00 | 28 | 1010.3 |
| 20260507131021 | 60 | 360 | 1.0 | 0.0 | 0.00 | 0.00 | 0.00 | 27 | 1010.3 |